Time,TemperatureF,DewpointF,PressureIn,WindDirection,WindDirectionDegrees,WindSpeedMPH,WindSpeedGustMPH,Humidity,HourlyPrecipIn,Conditions,Clouds,dailyrainin,SoftwareType,DateUTC
2013-06-26 00:07:00,68.7,67.0,29.89,SSE,160,0.0,4.0,94,0.00,,,0.04,weatherlink.com 1.10,2013-06-26 05:07:00,
2013-06-26 00:22:00,68.8,67.0,29.88,SSE,160,0.0,4.0,94,0.00,,,0.04,weatherlink.com 1.10,2013-06-26 05:22:00,
2013-06-26 00:37:00,69.0,67.0,29.88,SSE,160,2.0,2.0,93,0.00,,,0.00,weatherlink.com 1.10,2013-06-26 05:37:00,
2013-06-26 00:52:00,68.6,67.0,29.88,SSE,160,0.0,3.0,93,0.00,,,0.00,weatherlink.com 1.10,2013-06-26 05:52:00,
2013-06-26 01:07:00,68.6,67.0,29.87,SSE,160,0.0,2.0,93,0.00,,,0.00,weatherlink.com 1.10,2013-06-26 06:07:00,
2013-06-26 01:22:00,68.5,67.0,29.85,SSE,160,0.0,3.0,93,0.00,,,0.00,weatherlink.com 1.10,2013-06-26 06:22:00,
2013-06-26 01:37:00,68.8,66.0,29.85,SSE,160,0.0,3.0,92,0.00,,,0.00,weatherlink.com 1.10,2013-06-26 06:37:00,
2013-06-26 01:52:00,68.9,67.0,29.85,SSE,160,1.0,4.0,92,0.00,,,0.00,weatherlink.com 1.10,2013-06-26 06:52:00,
2013-06-26 02:07:00,68.9,67.0,29.85,SSE,154,0.0,3.0,92,0.00,,,0.00,weatherlink.com 1.10,2013-06-26 07:07:00,
2013-06-26 02:22:00,69.0,67.0,29.85,SSE,155,0.0,3.0,93,0.00,,,0.00,weatherlink.com 1.10,2013-06-26 07:22:00,
2013-06-26 02:37:00,68.5,67.0,29.84,SSE,155,0.0,2.0,93,0.00,,,0.00,weatherlink.com 1.10,2013-06-26 07:37:00,
2013-06-26 02:52:00,68.6,67.0,29.84,ESE,122,2.0,3.0,94,0.00,,,0.00,weatherlink.com 1.10,2013-06-26 07:52:00,
2013-06-26 03:07:00,68.5,67.0,29.84,ESE,112,2.0,3.0,94,0.00,,,0.00,weatherlink.com 1.10,2013-06-26 08:07:00,
2013-06-26 03:22:00,68.1,66.0,29.84,SE,128,0.0,3.0,94,0.00,,,0.00,weatherlink.com 1.10,2013-06-26 08:22:00,
2013-06-26 03:37:00,68.2,67.0,29.84,SE,126,0.0,4.0,94,0.00,,,0.00,weatherlink.com 1.10,2013-06-26 08:37:00,
2013-06-26 03:52:00,68.5,67.0,29.84,East,100,3.0,5.0,94,0.00,,,0.00,weatherlink.com 1.10,2013-06-26 08:52:00,
2013-06-26 04:07:00,68.4,67.0,29.84,SE,135,6.0,6.0,94,0.00,,,0.00,weatherlink.com 1.10,2013-06-26 09:07:00,
2013-06-26 04:22:00,68.4,67.0,29.84,SE,129,4.0,6.0,94,0.00,,,0.00,weatherlink.com 1.10,2013-06-26 09:22:00,
2013-06-26 04:37:00,68.3,67.0,29.84,SSE,149,6.0,6.0,95,0.00,,,0.00,weatherlink.com 1.10,2013-06-26 09:37:00,
2013-06-26 04:52:00,68.3,67.0,29.84,SSE,166,5.0,8.0,95,0.00,,,0.00,weatherlink.com 1.10,2013-06-26 09:52:00,
2013-06-26 05:07:00,68.3,67.0,29.84,SE,135,4.0,8.0,95,0.00,,,0.00,weatherlink.com 1.10,2013-06-26 10:07:00,
2013-06-26 05:22:00,68.3,67.0,29.84,SE,139,3.0,8.0,95,0.00,,,0.00,weatherlink.com 1.10,2013-06-26 10:22:00,
2013-06-26 05:37:00,68.3,67.0,29.84,ESE,122,0.0,8.0,95,0.00,,,0.00,weatherlink.com 1.10,2013-06-26 10:37:00,
2013-06-26 05:52:00,68.5,67.0,29.85,ESE,106,3.0,8.0,95,0.00,,,0.00,weatherlink.com 1.10,2013-06-26 10:52:00,
2013-06-26 06:07:00,68.7,67.0,29.85,ESE,120,6.0,10.0,95,0.00,,,0.00,weatherlink.com 1.10,2013-06-26 11:07:00,
2013-06-26 06:22:00,68.7,67.0,29.86,SE,140,3.0,11.0,95,0.00,,,0.00,weatherlink.com 1.10,2013-06-26 11:22:00,
2013-06-26 06:37:00,68.8,67.0,29.86,ESE,110,5.0,10.0,95,0.00,,,0.00,weatherlink.com 1.10,2013-06-26 11:37:00,
2013-06-26 06:52:00,69.1,67.0,29.87,ENE,69,16.0,17.0,94,0.15,,,0.15,weatherlink.com 1.10,2013-06-26 11:52:00,
2013-06-26 07:07:00,67.9,67.0,29.89,ENE,72,5.0,23.0,95,0.45,,,0.45,weatherlink.com 1.10,2013-06-26 12:07:00,
2013-06-26 07:22:00,65.7,64.0,29.91,NE,37,16.0,33.0,95,0.74,,,0.74,weatherlink.com 1.10,2013-06-26 12:22:00,
2013-06-26 07:38:00,65.6,64.0,29.92,North,360,8.0,27.0,95,0.76,,,0.76,weatherlink.com 1.10,2013-06-26 12:38:00,
2013-06-26 07:53:00,65.1,64.0,29.90,ENE,65,16.0,23.0,95,0.78,,,0.97,weatherlink.com 1.10,2013-06-26 12:53:00,
2013-06-26 08:08:00,65.1,64.0,29.91,ENE,60,7.0,16.0,96,0.64,,,1.13,weatherlink.com 1.10,2013-06-26 13:08:00,
2013-06-26 08:23:00,65.7,65.0,29.90,ENE,78,7.0,13.0,96,0.40,,,1.14,weatherlink.com 1.10,2013-06-26 13:23:00,
2013-06-26 08:38:00,66.2,65.0,29.89,ESE,118,6.0,11.0,96,0.39,,,1.15,weatherlink.com 1.10,2013-06-26 13:38:00,
2013-06-26 08:53:00,66.3,65.0,29.89,ESE,117,7.0,14.0,95,0.17,,,1.16,weatherlink.com 1.10,2013-06-26 13:53:00,
2013-06-26 09:08:00,66.5,65.0,29.87,SE,126,4.0,11.0,94,0.04,,,1.17,weatherlink.com 1.10,2013-06-26 14:08:00,
2013-06-26 09:23:00,67.3,66.0,29.87,ESE,102,3.0,10.0,94,0.03,,,1.17,weatherlink.com 1.10,2013-06-26 14:23:00,
2013-06-26 09:38:00,68.3,67.0,29.85,SE,132,4.0,9.0,94,0.02,,,1.17,weatherlink.com 1.10,2013-06-26 14:38:00,
2013-06-26 09:53:00,68.9,67.0,29.84,SSE,153,13.0,19.0,94,0.01,,,1.17,weatherlink.com 1.10,2013-06-26 14:53:00,
2013-06-26 10:08:00,70.1,68.0,29.85,SSE,165,6.0,19.0,92,0.00,,,1.17,weatherlink.com 1.10,2013-06-26 15:08:00,
2013-06-26 10:23:00,70.3,68.0,29.85,ESE,112,1.0,8.0,91,0.00,,,1.17,weatherlink.com 1.10,2013-06-26 15:23:00,
2013-06-26 10:38:00,70.6,68.0,29.84,ESE,122,3.0,13.0,90,0.00,,,1.17,weatherlink.com 1.10,2013-06-26 15:38:00,
2013-06-26 10:53:00,71.2,68.0,29.85,SSE,158,4.0,16.0,90,0.00,,,1.17,weatherlink.com 1.10,2013-06-26 15:53:00,
2013-06-26 11:08:00,72.8,69.0,29.83,SSE,149,4.0,14.0,88,0.00,,,1.17,weatherlink.com 1.10,2013-06-26 16:08:00,
2013-06-26 11:23:00,73.3,69.0,29.83,SSE,161,5.0,14.0,87,0.00,,,1.17,weatherlink.com 1.10,2013-06-26 16:23:00,
2013-06-26 11:38:00,72.5,70.0,29.82,SE,143,3.0,14.0,90,0.01,,,1.18,weatherlink.com 1.10,2013-06-26 16:38:00,
2013-06-26 11:53:00,73.9,71.0,29.80,SSE,163,13.0,14.0,91,0.01,,,1.18,weatherlink.com 1.10,2013-06-26 16:53:00,
2013-06-26 12:08:00,75.6,72.0,29.80,SSE,160,6.0,11.0,89,0.01,,,1.18,weatherlink.com 1.10,2013-06-26 17:08:00,
2013-06-26 12:23:00,77.3,73.0,29.80,SSE,166,7.0,16.0,86,0.01,,,1.18,weatherlink.com 1.10,2013-06-26 17:23:00,
2013-06-26 12:38:00,77.4,73.0,29.80,SSE,166,13.0,17.0,85,0.00,,,1.18,weatherlink.com 1.10,2013-06-26 17:38:00,
2013-06-26 12:53:00,77.5,72.0,29.80,South,186,11.0,15.0,84,0.00,,,1.18,weatherlink.com 1.10,2013-06-26 17:53:00,
2013-06-26 13:08:00,77.5,73.0,29.81,SSE,157,11.0,16.0,87,0.00,,,1.18,weatherlink.com 1.10,2013-06-26 18:08:00,
2013-06-26 13:23:00,76.8,73.0,29.81,SSE,167,3.0,15.0,87,0.00,,,1.18,weatherlink.com 1.10,2013-06-26 18:23:00,
2013-06-26 13:38:00,79.2,74.0,29.80,SSE,158,3.0,13.0,85,0.00,,,1.18,weatherlink.com 1.10,2013-06-26 18:38:00,
2013-06-26 13:53:00,78.6,74.0,29.80,SSW,197,1.0,12.0,86,0.00,,,1.18,weatherlink.com 1.10,2013-06-26 18:53:00,
2013-06-26 14:08:00,79.2,74.0,29.79,SSE,166,5.0,10.0,83,0.00,,,1.18,weatherlink.com 1.10,2013-06-26 19:08:00,
2013-06-26 14:23:00,78.4,74.0,29.78,SSW,207,2.0,9.0,85,0.00,,,1.18,weatherlink.com 1.10,2013-06-26 19:23:00,
2013-06-26 14:38:00,78.6,73.0,29.78,South,175,1.0,8.0,84,0.00,,,1.18,weatherlink.com 1.10,2013-06-26 19:38:00,
2013-06-26 14:53:00,78.8,74.0,29.79,WSW,245,0.0,7.0,84,0.00,,,1.18,weatherlink.com 1.10,2013-06-26 19:53:00,
2013-06-26 15:08:00,78.7,73.0,29.79,South,184,2.0,8.0,82,0.00,,,1.18,weatherlink.com 1.10,2013-06-26 20:08:00,
2013-06-26 15:23:00,78.4,73.0,29.78,South,180,0.0,4.0,83,0.00,,,1.18,weatherlink.com 1.10,2013-06-26 20:23:00,
2013-06-26 15:38:00,78.1,73.0,29.78,SSW,194,1.0,2.0,85,0.00,,,1.18,weatherlink.com 1.10,2013-06-26 20:38:00,
2013-06-26 15:53:00,78.7,74.0,29.77,SSW,194,0.0,2.0,85,0.00,,,1.18,weatherlink.com 1.10,2013-06-26 20:53:00,
2013-06-26 16:08:00,79.6,74.0,29.77,SSW,194,0.0,4.0,82,0.00,,,1.18,weatherlink.com 1.10,2013-06-26 21:08:00,
2013-06-26 16:38:00,79.6,74.0,29.76,SSW,210,0.0,3.0,82,0.00,,,1.18,weatherlink.com 1.10,2013-06-26 21:38:00,
2013-06-26 16:54:00,78.3,73.0,29.76,SSW,210,0.0,3.0,84,0.00,,,1.18,weatherlink.com 1.10,2013-06-26 21:54:00,
2013-06-26 17:09:00,77.6,73.0,29.77,South,185,2.0,3.0,84,0.00,,,1.18,weatherlink.com 1.10,2013-06-26 22:09:00,
2013-06-26 17:24:00,76.7,72.0,29.77,SSE,164,2.0,6.0,86,0.00,,,1.18,weatherlink.com 1.10,2013-06-26 22:24:00,
2013-06-26 17:39:00,74.7,71.0,29.77,South,180,6.0,6.0,88,0.00,,,1.18,weatherlink.com 1.10,2013-06-26 22:39:00,
2013-06-26 17:54:00,74.3,71.0,29.77,SE,144,2.0,4.0,89,0.00,,,1.18,weatherlink.com 1.10,2013-06-26 22:54:00,
2013-06-26 18:09:00,74.2,71.0,29.77,SSE,156,2.0,5.0,90,0.00,,,1.18,weatherlink.com 1.10,2013-06-26 23:09:00,
2013-06-26 18:24:00,73.8,71.0,29.77,SSE,165,2.0,4.0,90,0.00,,,1.18,weatherlink.com 1.10,2013-06-26 23:24:00,
2013-06-26 18:39:00,73.6,71.0,29.77,SSE,165,2.0,3.0,91,0.00,,,1.18,weatherlink.com 1.10,2013-06-26 23:39:00,
2013-06-26 18:54:00,73.7,71.0,29.76,SSE,165,2.0,2.0,92,0.00,,,1.18,weatherlink.com 1.10,2013-06-26 23:54:00,
2013-06-26 19:09:00,73.7,71.0,29.76,SSE,165,0.0,3.0,92,0.00,,,1.18,weatherlink.com 1.10,2013-06-27 00:09:00,
2013-06-26 19:24:00,74.0,71.0,29.76,SSE,165,1.0,2.0,91,0.00,,,1.18,weatherlink.com 1.10,2013-06-27 00:24:00,
2013-06-26 19:39:00,73.8,71.0,29.75,SSE,160,0.0,2.0,91,0.00,,,1.18,weatherlink.com 1.10,2013-06-27 00:39:00,
2013-06-26 19:54:00,73.6,71.0,29.76,SSE,160,1.0,3.0,92,0.00,,,1.18,weatherlink.com 1.10,2013-06-27 00:54:00,
2013-06-26 20:09:00,73.5,71.0,29.76,SSE,160,0.0,2.0,93,0.00,,,1.18,weatherlink.com 1.10,2013-06-27 01:09:00,
2013-06-26 20:24:00,73.3,71.0,29.76,SSE,160,0.0,1.0,93,0.00,,,1.18,weatherlink.com 1.10,2013-06-27 01:24:00,
2013-06-26 20:39:00,72.7,71.0,29.77,SSE,160,1.0,2.0,94,0.00,,,1.18,weatherlink.com 1.10,2013-06-27 01:39:00,
2013-06-26 20:54:00,72.8,71.0,29.77,ESE,105,1.0,2.0,93,0.00,,,1.18,weatherlink.com 1.10,2013-06-27 01:54:00,
2013-06-26 21:09:00,72.7,71.0,29.77,ESE,105,0.0,1.0,93,0.00,,,1.18,weatherlink.com 1.10,2013-06-27 02:09:00,
2013-06-26 21:24:00,72.4,71.0,29.77,ESE,105,2.0,2.0,94,0.00,,,1.18,weatherlink.com 1.10,2013-06-27 02:24:00,
2013-06-26 21:39:00,72.5,70.0,29.77,ESE,105,0.0,2.0,93,0.00,,,1.18,weatherlink.com 1.10,2013-06-27 02:39:00,
2013-06-26 21:54:00,72.3,70.0,29.77,ESE,105,0.0,3.0,93,0.00,,,1.18,weatherlink.com 1.10,2013-06-27 02:54:00,
2013-06-26 22:09:00,71.9,70.0,29.77,ESE,104,1.0,2.0,94,0.00,,,1.18,weatherlink.com 1.10,2013-06-27 03:09:00,
2013-06-26 22:24:00,71.5,70.0,29.78,ESE,104,0.0,0.0,94,0.00,,,1.18,weatherlink.com 1.10,2013-06-27 03:24:00,
2013-06-26 22:39:00,70.8,69.0,29.79,ESE,104,0.0,1.0,95,0.00,,,1.18,weatherlink.com 1.10,2013-06-27 03:39:00,
2013-06-26 22:54:00,70.2,69.0,29.79,ESE,104,0.0,0.0,96,0.00,,,1.18,weatherlink.com 1.10,2013-06-27 03:54:00,
2013-06-26 23:09:00,70.0,69.0,29.79,ESE,105,0.0,0.0,96,0.00,,,1.18,weatherlink.com 1.10,2013-06-27 04:09:00,
2013-06-26 23:24:00,70.2,69.0,29.79,ESE,105,0.0,0.0,97,0.00,,,1.18,weatherlink.com 1.10,2013-06-27 04:24:00,
2013-06-26 23:39:00,70.8,70.0,29.79,ESE,104,0.0,1.0,96,0.00,,,1.18,weatherlink.com 1.10,2013-06-27 04:39:00,
2013-06-26 23:54:00,70.2,69.0,29.79,ESE,104,0.0,1.0,96,0.00,,,1.18,weatherlink.com 1.10,2013-06-27 04:54:00,